Flag for U.S.A. Weather past 2 weeks in Winston-Salem, North Carolina, U.S.A.

Now
80 °F

Broken clouds.


Feels Like: 82 °F
Forecast: 69 / 82 °F
Wind: N/A

Location: Smith Reynolds Airport

Current Time: May 27, 2015 at 4:08:40 PM

Latest Report: May 27, 2015 at 2:54 PM


Visibility: 10 mi

Pressure: 30.19 "Hg

Humidity: 58%

Dew point: 64 °F

Location of Winston-SalemLocation

Historic Weather in Winston-Salem — Graph

°F

Winston-Salem temperature yesterday

Maximum temperature yesterday: 84 °F (at 1:54 PM)
Minimum temperature yesterday: 67 °F (at 5:54 AM)
Average temperature yesterday: 76 °F

Past Weeks' High & Low Weather Summary

 TemperatureHumidityPressure
High88 °F (May 20, 5:54 PM)96% (May 21, 5:54 AM)30.44 "Hg (May 21, 5:54 AM)
Low50 °F (May 22, 5:54 AM)23% (May 13, 5:54 PM)29.83 "Hg (May 21, 5:54 PM)
Average71 °F59%30.18 "Hg
* Reported May 12 2:54 PM — May 27 2:54 PM, Winston-Salem, Weather by CustomWeather, © 2015

Note: Actual official high and low records may vary slightly from our data, if they occured in-between our weather recording intervals... More about our weather records

Advertising

Winston-Salem weather history for previous 24 hours

 ConditionsComfort  
Time TempWeatherWind HumidityBarometerVisibility
2:54 PM
Wed, May 27
80 °FBroken clouds.N/A58%30.19 "Hg10 mi
1:54 PM79 °FScattered clouds.8 mph62%30.21 "Hg10 mi
12:54 PM75 °FPassing clouds.9 mph69%30.23 "Hg10 mi
11:54 AM73 °FPassing clouds.8 mph71%30.24 "Hg10 mi
11:03 AM72 °FPartly sunny.5 mph73%30.28 "Hg10 mi
10:54 AM72 °FScattered clouds.7 mph73%30.25 "Hg10 mi
9:54 AM71 °FPassing clouds.8 mph76%30.25 "Hg10 mi
8:54 AM71 °FScattered clouds.7 mph76%30.24 "Hg10 mi
7:54 AM68 °FPartly sunny.5 mph84%30.23 "Hg10 mi
6:54 AM67 °FOvercast.5 mph87%30.21 "Hg10 mi
5:54 AM67 °FPassing clouds.5 mph87%30.18 "Hg10 mi
4:54 AM66 °FClear.3 mph87%30.17 "Hg10 mi
3:54 AM67 °FClear.3 mph85%30.17 "Hg10 mi
2:54 AM69 °FClear.3 mph79%30.17 "Hg10 mi
1:54 AM71 °FClear.8 mph71%30.17 "Hg10 mi
12:54 AM73 °FPartly cloudy.12 mph69%30.21 "Hg10 mi
11:54 PM
Tue, May 26
77 °FLight rain. Mostly cloudy.12 mph71%30.19 "Hg10 mi
10:54 PM77 °FClear.5 mph64%30.18 "Hg10 mi
9:54 PM78 °FClear.6 mph62%30.16 "Hg10 mi
8:54 PM79 °FSunny.5 mph58%30.16 "Hg10 mi
7:54 PM81 °FSunny.5 mph54%30.16 "Hg10 mi
6:54 PM82 °FPartly sunny.7 mph53%30.16 "Hg10 mi
5:54 PM84 °FScattered clouds.9 mph43%30.16 "Hg10 mi
4:54 PM84 °FOvercast.7 mph45%30.16 "Hg10 mi
Weather by CustomWeather, © 2015

See weather overviewHow to use our weather pages